Regional Weather Roundup
Issued by NWS

Home | Current Version | Previous Version | Text Only | Print | Product List | Glossary On
Versions: 1 2 3 4 5 6 7 8 9 10 11 12 13 14 15 16 17 18 19 20 21 22 23 24 25 26 27 28 29 30 31 32 33 34 35 36 37 38 39 40 41 42 43 44 45 46 47 48 49 50
000
ASUS43 KDTX 221210
RWRMI
MICHIGAN HOURLY REGIONAL WEATHER ROUNDUP
NATIONAL WEATHER SERVICE DETROIT/PONTIAC MI
800 AM EDT TUE JUL 22 2014

NOTE: "FAIR" INDICATES FEW OR NO CLOUDS BELOW 12,000 FEET WITH NO
SIGNIFICANT WEATHER AND/OR OBSTRUCTION TO VISIBILITY.

MIZ047>049-052>055-059>063-066>070-074>076-081>083-221300-
SOUTHEAST LOWER MICHIGAN

CITY           SKY/WX    TMP DP  RH WIND       PRES   REMARKS
ADRIAN         SUNNY     66  61  84 CALM      30.13R
6HR MIN TEMP:  60; 6HR MAX TEMP:  66;

ALMA           SUNNY     67  63  87 S6        30.10S
6HR MIN TEMP:  63; 6HR MAX TEMP:  67;

ANN ARBOR      SUNNY     65  62  90 CALM      30.12S
BAD AXE        SUNNY     68  58  71 S7        30.11S
6HR MIN TEMP:  63; 6HR MAX TEMP:  68;

DETROIT CITY     N/A     72  63  73 CALM      30.12R
6HR MIN TEMP:  66; 6HR MAX TEMP:  72;

DETROIT        SUNNY     70  64  81 CALM      30.12S HAZE
6HR MIN TEMP:  65; 6HR MAX TEMP:  70;

FLINT          SUNNY     72  60  66 SW6       30.12R
6HR MIN TEMP:  62; 6HR MAX TEMP:  72;

GROSSE ILE     SUNNY     72  66  83 CALM      30.11S
HILLSDALE      SUNNY     69  66  89 S3        30.13S
6HR MIN TEMP:  62; 6HR MAX TEMP:  69;

HOWELL         SUNNY     68  60  75 S5        30.12S
6HR MIN TEMP:  63; 6HR MAX TEMP:  68;


CITY           SKY/WX    TMP DP  RH WIND       PRES   REMARKS
JACKSON        SUNNY     70  63  78 SW6       30.12S
6HR MIN TEMP:  62; 6HR MAX TEMP:  70;

LAMBERTVILLE   SUNNY     68  61  77 CALM      30.13R
LANSING        SUNNY     69  62  78 S6        30.12R
6HR MIN TEMP:  66; 6HR MAX TEMP:  70;

LAPEER         NOT AVBL
MASON          SUNNY     66  62  86 CALM      30.12R
MONROE         SUNNY     66  63  88 CALM      30.11R
MT. CLEMENS    SUNNY     69  64  86 CALM      30.11R
6HR MIN TEMP:  59; 6HR MAX TEMP:  69;

PONTIAC        SUNNY     69  61  75 SW3       30.13R
6HR MIN TEMP:  63; 6HR MAX TEMP:  69;

PORT HOPE        N/A     70  57  63 VRB5      30.08R
6HR MIN TEMP:  68; 6HR MAX TEMP:  71;

PORT HURON     SUNNY     64  64 100 CALM      30.13R FOG
TRI CITIES     SUNNY     69  61  75 S8        30.09S
6HR MIN TEMP:  67; 6HR MAX TEMP:  72;

YPSILANTI      SUNNY     72  63  73 CALM      30.12S
6HR MIN TEMP:  62; 6HR MAX TEMP:  71;

$$
MIZ043>046-050>051-056>058-064>065-071>073-077>080-221300-
SOUTHWEST LOWER MICHIGAN

CITY           SKY/WX    TMP DP  RH WIND       PRES   REMARKS
BATTLE CREEK   SUNNY     69  63  81 SW3       30.12R
6HR MIN TEMP:  65; 6HR MAX TEMP:  69;

BENTON HARBOR  SUNNY     68  64  87 S5        30.09R
6HR MIN TEMP:  62; 6HR MAX TEMP:  68;

BIG RAPIDS     SUNNY     66  66 100 S5        30.07S FOG
6HR MIN TEMP:  59; 6HR MAX TEMP:  66;

COLDWATER      SUNNY     70  64  82 CALM      30.11F
6HR MIN TEMP:  65; 6HR MAX TEMP:  70;

HOLLAND        SUNNY     69  65  86 S5        30.08S
6HR MIN TEMP:  64; 6HR MAX TEMP:  69;

GRAND RAPIDS   MOSUNNY   69  66  90 S7        30.10R
6HR MIN TEMP:  66; 6HR MAX TEMP:  69;

KALAMAZOO      SUNNY     69  64  84 S3        30.11R
6HR MIN TEMP:  63; 6HR MAX TEMP:  69;

MARSHALL       SUNNY     68  62  81 CALM      30.11R
MUSKEGON       MOSUNNY   74  66  76 S12       30.06S
6HR MIN TEMP:  67; 6HR MAX TEMP:  74;

$$
MIZ016>042-221300-
NORTHERN LOWER MICHIGAN

CITY           SKY/WX    TMP DP  RH WIND       PRES   REMARKS
ALPENA         MOSUNNY   70  65  84 SW5       30.05S
6HR MIN TEMP:  63; 6HR MAX TEMP:  71;

BEAVER ISLAND  MOSUNNY   72  65  81 S10       29.96F
6HR MIN TEMP:  69; 6HR MAX TEMP:  72;

BELLAIRE       SUNNY     73  64  73 S5        30.00F
6HR MIN TEMP:  62; 6HR MAX TEMP:  73;

CADILLAC       SUNNY     68  65  90 S10       30.05S
CHARLEVOIX     MOSUNNY   72  65  79 SE6       30.01F
6HR MIN TEMP:  69; 6HR MAX TEMP:  72;

FRANKFORT      MOSUNNY   76  65  68 S16G25    29.98F
GAYLORD        SUNNY    N/A N/A N/A S9        30.04F
GRAYLING       SUNNY     70  64  82 S7        30.05F
6HR MIN TEMP:  59; 6HR MAX TEMP:  70;

HARBOR SPRINGS SUNNY     71  64  78 S5        29.99F
HOUGHTON LAKE  SUNNY     71  65  81 S9        30.07S
6HR MIN TEMP:  59; 6HR MAX TEMP:  71;

MANISTEE       SUNNY     70  63  78 S6        30.00F
OSCODA         SUNNY     70  65  86 SW5       30.07R
PELLSTON       SUNNY     71  64  78 S6        30.00F
6HR MIN TEMP:  61; 6HR MAX TEMP:  71;

TRAVERSE CITY  PTSUNNY   74  64  71 VRB6      29.99S
6HR MIN TEMP:  69; 6HR MAX TEMP:  74;

$$
MIZ007>008-015-221300-
EASTERN UPPER MICHIGAN

CITY           SKY/WX    TMP DP  RH WIND       PRES   REMARKS
KINROSS        SUNNY     70  64  83 S5        29.97F
6HR MIN TEMP:  63; 6HR MAX TEMP:  70;

MACKINAC ISLAN SUNNY     69  63  81 S13G20    29.98F
6HR MIN TEMP:  66; 6HR MAX TEMP:  69;

NEWBERRY       MOSUNNY   66  62  86 S12G24    29.94F
S. S. MARIE    PTSUNNY   66  61  84 CALM      29.98S
6HR MIN TEMP:  62; 6HR MAX TEMP:  66;

$$
MIZ004>006-011>014-085-221300-
CENTRAL UPPER MICHIGAN

CITY           SKY/WX    TMP DP  RH WIND       PRES   REMARKS
MANISTIQUE     CLOUDY    63  61  94 S7        29.92F FOG
ESCANABA       CLOUDY    66  61  82 S5        29.89S
6HR MIN TEMP:  64; 6HR MAX TEMP:  66;

MENOMINEE      PTSUNNY   73  66  78 SW10      29.89R
6HR MIN TEMP:  70; 6HR MAX TEMP:  73;

SAWYER-GWINN   CLOUDY    68  66  94 S8        29.88F FOG
$$
MIZ001>003-009>011-084-221300-
WESTERN UPPER MICHIGAN

CITY           SKY/WX    TMP DP  RH WIND       PRES   REMARKS
IRON MOUNTAIN  CLOUDY    70  67  90 SE6       29.85F FOG
6HR MIN TEMP:  68; 6HR MAX TEMP:  72;

HOUGHTON       CLOUDY    67  63  87 SW9       29.70F
6HR MIN TEMP:  66; 6HR MAX TEMP:  75; 6HR PCP:  0.24;

COPPER HARBOR    N/A     67  64  90 SW10G22   29.68F
6HR MIN TEMP:  67; 6HR MAX TEMP:  76; 6HR PCP:  0.05;

IRONWOOD       PTSUNNY   73  68  83 S16G23    29.71F
6HR MIN TEMP:  68; 6HR MAX TEMP:  77;

$$

ABBREVIATIONS USED IN REMARKS
   TC - TEMPERATURE IN CELSIUS
  WCI - WIND CHILL INDEX
   HX - HEAT INDEX
  VSB - VISIBILITY



USA.gov is the U.S. government's official web portal to all federal, state and local government web resources and services.